Regional Weather Roundup
Issued by NWS

Home | Current Version | Previous Version | Graphics & Text | Print | Product List | Glossary On
Versions: 1 2 3 4 5 6 7 8 9 10 11 12 13 14 15 16 17 18 19 20 21 22 23 24 25 26 27 28 29 30 31 32 33 34 35 36 37 38 39 40 41 42 43 44 45 46 47 48 49 50
000
ASUS43 KLOT 270500
RWRIL

ILLINOIS REGIONAL WEATHER ROUNDUP
NATIONAL WEATHER SERVICE CHICAGO/ROMEOVILLE IL
1100 PM CST WED NOV 26 2014

NOTE: "FAIR" INDICATES FEW OR NO CLOUDS BELOW 12,000 FEET WITH NO
SIGNIFICANT WEATHER AND/OR OBSTRUCTIONS TO VISIBILITY.

* THESE STATIONS ARE NOT UNDER NWS QUALITY CONTROL. THEY ALSO MAY NOT
  REPORT WEATHER SUCH AS PRECIPITATION OR FOG.

ILZ001-002-007-009-015-016-024-270600-
NORTHWEST ILLINOIS

CITY           SKY/WX    TMP DP  RH WIND       PRES   REMARKS
MOLINE         MOCLDY    26  19  74 CALM      30.25R
STERLING*      PTCLDY    21  18  86 N8        30.24R WCI  12
$$

ILZ003-004-008-010-011-017-018-270600-
NORTH CENTRAL ILLINOIS

CITY           SKY/WX    TMP DP  RH WIND       PRES   REMARKS
ROCKFORD       PTCLDY    20  15  81 N8        30.24R HAZE    WCI  10
$$

ILZ005-006-012>014-019>023-270600-
NORTHEAST ILLINOIS

CITY           SKY/WX    TMP DP  RH WIND       PRES   REMARKS
CHICAGO-OHARE  CLOUDY    27  21  78 NW10      30.17R WCI  17
CHICAGO-MIDWAY FLURRIES  30  24  78 NW12      30.17R WCI  20
AURORA         CLOUDY    24  19  81 N13       30.20R HAZE    WCI  12
WAUKEGAN       CLOUDY    25  20  81 NW6       30.17R WCI  18
DUPAGE AIRPORT CLOUDY    26  21  81 NW7       30.18R WCI  18
WHEELING       CLOUDY    26  21  81 NW9       30.19S WCI  17
NORTHERLY ISL    N/A     31  25  78 NW9         N/A  WCI  23
$$

LMZ740>746-270600-
SOUTHERN LAKE MICHIGAN

STATION/POSITION SKY/WX   TEMP    WIND        PRES    VSBY  WAVE
                          AIR SEA DIR/SP/G                  HT/PER
                          (F)     (DEG/KT/KT) (MB)    (MI)  (FT/S)
SOUTHERN BUOY              32 42  260/  2/  4 1021.7R         0
WAUKEGAN HARBOR            26     330/  7/ 11   N/A
HARRISON CRIB              29     310/ 14/ 16   N/A
BURNHAM HARBOR             30     300/  9/ 11   N/A
CALUMET HARBOR             29     250/  6/  8 1020.1R
MICHIGAN CITY              28     140/  4/  5   N/A
$$

ILZ025>027-034>036-040-047-049-050-058-095>099-270600-
WEST-CENTRAL ILLINOIS

CITY           SKY/WX    TMP DP  RH WIND       PRES   REMARKS
QUINCY         CLOUDY    28  25  88 N15       30.25R FOG     WCI  16
$$

ILZ028>032-037-038-041>044-048-051>054-059>061-270600-
CENTRAL ILLINOIS

CITY           SKY/WX    TMP DP  RH WIND       PRES   REMARKS
DECATUR        LGT SNOW  28  24  85 N10       30.18R FOG     WCI  19
PEORIA         CLOUDY    27  19  72 N7        30.23R WCI  19
SPRINGFIELD    LGT SNOW  28  25  88 N10       30.21R FOG     WCI  19
TAYLORVILLE    NOT AVBL
$$

ILZ033-039-045-046-055>057-062-063-270600-
EAST-CENTRAL ILLINOIS

CITY           SKY/WX    TMP DP  RH WIND       PRES   REMARKS
CHAMPAIGN      CLOUDY    27  22  81 N13       30.17R WCI  16
MATTOON        FLURRIES  28  25  88 N15       30.14R WCI  16
$$

ILZ079-100>102-270600-
SOUTHWEST ILLINOIS

CITY           SKY/WX    TMP DP  RH WIND       PRES   REMARKS
BELLEVILLE     LGT RAIN  32  32 100 N7        30.14R FOG     WCI  26
CAHOKIA*       CLOUDY    34  32  92 N8        30.16R FOG     WCI  27
$$

ILZ064>066-069>071-074>076-080>082-084>086-088>090-092>094-270600-
SOUTH-CENTRAL ILLINOIS

CITY           SKY/WX    TMP DP  RH WIND       PRES   REMARKS
CARBONDALE     CLOUDY    33  31  92 NW5       30.13R FOG     WCI  29
MT. VERNON     CLOUDY    32  28  86 CALM      30.13R
$$

ILZ067-068-072-073-078-083-087-091-270600-
SOUTHEAST ILLINOIS

CITY           SKY/WX    TMP DP  RH WIND       PRES   REMARKS
LAWRENCEVILLE  LGT SNOW  31  30  96 N12       30.12R FOG     WCI  22
$$

ABBREVIATIONS USED IN REMARKS
   TC - TEMPERATURE IN CELSIUS
  WCI - WIND CHILL INDEX
   HX - HEAT INDEX
  VSB - VISIBILITY
$$



USA.gov is the U.S. government's official web portal to all federal, state and local government web resources and services.